When you browse on this site, cookies collect data to enhance your experience and personalize the content and advertising you see.
Visit our Privacy Policy to learn more. By continuing to use the site, you agree to this use of cookies and data.

Stündliche Wetter Münster

Heute, 9 Juli, Donnerstag

Zeit Temperatur Niederschläge Wind Luftdruck Luftfeuchtigkeit
00:00 +14°C° 0 mm 2 m/S 756 mmHg 93%
01:00 +14°C° 0 mm 2 m/S 756 mmHg 93%
02:00 +15°C° 0 mm 2 m/S 756 mmHg 94%
03:00 +15°C° 0 mm 2 m/S 755 mmHg 94%
04:00 +15°C° 0 mm 2 m/S 755 mmHg 94%
05:00 +14°C° 0.7 mm 3 m/S 755 mmHg 95%
06:00 +16°C° 0.7 mm 3 m/S 754 mmHg 96%
07:00 +16°C° 0.7 mm 3 m/S 754 mmHg 97%
08:00 +15°C° 0.4 mm 4 m/S 754 mmHg 96%
09:00 +16°C° 0.4 mm 5 m/S 754 mmHg 94%
10:00 +17°C° 0.4 mm 6 m/S 754 mmHg 93%
11:00 +17°C° 0.1 mm 6 m/S 753 mmHg 90%
12:00 +19°C° 0.1 mm 6 m/S 753 mmHg 87%
13:00 +19°C° 0.1 mm 6 m/S 753 mmHg 84%
14:00 +19°C° 0.1 mm 6 m/S 753 mmHg 84%
15:00 +19°C° 0.1 mm 5 m/S 752 mmHg 84%
16:00 +19°C° 0.1 mm 5 m/S 752 mmHg 84%
17:00 +19°C° 0.1 mm 5 m/S 752 mmHg 85%
18:00 +19°C° 0.1 mm 5 m/S 752 mmHg 87%
19:00 +19°C° 0.1 mm 4 m/S 752 mmHg 88%
20:00 +18°C° 0 mm 4 m/S 752 mmHg 90%
21:00 +18°C° 0 mm 4 m/S 752 mmHg 91%
22:00 +18°C° 0 mm 4 m/S 753 mmHg 92%
23:00 +17°C° 0 mm 3 m/S 753 mmHg 93%

Morgen, 10 Juli, Freitag

Zeit Temperatur Niederschläge Wind Luftdruck Luftfeuchtigkeit
00:00 +17°C° 0 mm 3 m/S 752 mmHg 93%
01:00 +17°C° 0 mm 3 m/S 752 mmHg 93%
02:00 +17°C° 0.2 mm 3 m/S 752 mmHg 93%
03:00 +17°C° 0.2 mm 3 m/S 752 mmHg 93%
04:00 +17°C° 0.2 mm 3 m/S 752 mmHg 93%
05:00 +16°C° 0.5 mm 3 m/S 752 mmHg 93%
06:00 +16°C° 0.5 mm 3 m/S 752 mmHg 93%
07:00 +16°C° 0.5 mm 3 m/S 751 mmHg 93%
08:00 +14°C° 0.3 mm 3 m/S 752 mmHg 93%
09:00 +14°C° 0.3 mm 3 m/S 752 mmHg 93%
10:00 +14°C° 0.3 mm 3 m/S 752 mmHg 93%
11:00 +14°C° 0.4 mm 3 m/S 752 mmHg 89%
12:00 +16°C° 0.4 mm 3 m/S 753 mmHg 86%
13:00 +16°C° 0.4 mm 3 m/S 753 mmHg 82%
14:00 +17°C° 0.3 mm 3 m/S 754 mmHg 81%
15:00 +17°C° 0.3 mm 3 m/S 754 mmHg 79%
16:00 +18°C° 0.3 mm 3 m/S 754 mmHg 77%
17:00 +17°C° 0.5 mm 3 m/S 755 mmHg 79%
18:00 +16°C° 0.5 mm 3 m/S 755 mmHg 81%
19:00 +15°C° 0.5 mm 4 m/S 756 mmHg 83%
20:00 +13°C° 0 mm 3 m/S 756 mmHg 85%
21:00 +12°C° 0 mm 3 m/S 757 mmHg 88%
22:00 +12°C° 0 mm 2 m/S 758 mmHg 90%
23:00 +12°C° 0 mm 2 m/S 758 mmHg 90%

übermorgen, 11 Juli, Samstag

Zeit Temperatur Niederschläge Wind Luftdruck Luftfeuchtigkeit
00:00 +10°C° 0 mm 2 m/S 759 mmHg 90%
01:00 +10°C° 0 mm 1 m/S 759 mmHg 90%
02:00 +10°C° 0 mm 1 m/S 759 mmHg 90%
03:00 +10°C° 0 mm 1 m/S 759 mmHg 90%
04:00 +9°C° 0 mm 1 m/S 760 mmHg 90%
05:00 +10°C° 0 mm 1 m/S 760 mmHg 87%
06:00 +12°C° 0 mm 1 m/S 760 mmHg 85%
07:00 +13°C° 0 mm 2 m/S 761 mmHg 82%
08:00 +14°C° 0 mm 2 m/S 761 mmHg 75%
09:00 +15°C° 0 mm 2 m/S 761 mmHg 69%
10:00 +17°C° 0 mm 2 m/S 762 mmHg 62%
11:00 +17°C° 0.1 mm 2 m/S 762 mmHg 60%
12:00 +18°C° 0.1 mm 2 m/S 762 mmHg 58%
13:00 +19°C° 0.1 mm 3 m/S 762 mmHg 56%
14:00 +19°C° 0.4 mm 3 m/S 762 mmHg 59%
15:00 +19°C° 0.4 mm 3 m/S 763 mmHg 62%
16:00 +19°C° 0.4 mm 3 m/S 763 mmHg 65%
17:00 +18°C° 0.3 mm 3 m/S 763 mmHg 69%
18:00 +17°C° 0.3 mm 3 m/S 763 mmHg 72%
19:00 +17°C° 0.3 mm 2 m/S 763 mmHg 75%
20:00 +15°C° 0 mm 2 m/S 764 mmHg 79%
21:00 +14°C° 0 mm 2 m/S 764 mmHg 82%
22:00 +13°C° 0 mm 2 m/S 764 mmHg 86%
23:00 +12°C° 0 mm 2 m/S 764 mmHg 87%

12 Juli, Sonntag

Zeit Temperatur Niederschläge Wind Luftdruck Luftfeuchtigkeit
00:00 +12°C° 0 mm 1 m/S 764 mmHg 88%
01:00 +11°C° 0 mm 1 m/S 765 mmHg 90%
02:00 +11°C° 0 mm 1 m/S 765 mmHg 90%
03:00 +10°C° 0 mm 1 m/S 764 mmHg 90%
04:00 +10°C° 0 mm 1 m/S 764 mmHg 91%
05:00 +11°C° 0 mm 1 m/S 765 mmHg 88%
06:00 +12°C° 0 mm 1 m/S 765 mmHg 85%
07:00 +13°C° 0 mm 1 m/S 765 mmHg 81%
08:00 +15°C° 0 mm 1 m/S 765 mmHg 74%
09:00 +16°C° 0 mm 1 m/S 765 mmHg 66%
10:00 +19°C° 0 mm 1 m/S 765 mmHg 59%
11:00 +20°C° 0 mm 1 m/S 765 mmHg 55%
12:00 +21°C° 0 mm 1 m/S 765 mmHg 51%
13:00 +22°C° 0 mm 1 m/S 765 mmHg 47%
14:00 +22°C° 0 mm 1 m/S 765 mmHg 47%
15:00 +22°C° 0 mm 1 m/S 764 mmHg 46%
16:00 +21°C° 0 mm 2 m/S 764 mmHg 45%
17:00 +21°C° 0 mm 2 m/S 764 mmHg 51%
18:00 +20°C° 0 mm 2 m/S 764 mmHg 57%
19:00 +19°C° 0 mm 2 m/S 763 mmHg 62%
20:00 +18°C° 0 mm 2 m/S 763 mmHg 68%
21:00 +16°C° 0 mm 2 m/S 764 mmHg 73%
22:00 +14°C° 0 mm 2 m/S 764 mmHg 79%
23:00 +14°C° 0 mm 2 m/S 763 mmHg 82%

13 Juli, Montag

Zeit Temperatur Niederschläge Wind Luftdruck Luftfeuchtigkeit
00:00 +13°C° 0 mm 2 m/S 763 mmHg 85%
01:00 +13°C° 0 mm 2 m/S 763 mmHg 88%
02:00 +12°C° 0 mm 2 m/S 762 mmHg 88%
03:00 +12°C° 0 mm 2 m/S 762 mmHg 88%
04:00 +12°C° 0 mm 2 m/S 762 mmHg 88%
05:00 +13°C° 0 mm 2 m/S 762 mmHg 84%
06:00 +14°C° 0 mm 2 m/S 761 mmHg 80%
07:00 +15°C° 0 mm 2 m/S 761 mmHg 76%
08:00 +17°C° 0 mm 2 m/S 761 mmHg 70%
09:00 +18°C° 0 mm 2 m/S 761 mmHg 64%
10:00 +20°C° 0 mm 2 m/S 760 mmHg 58%
11:00 +21°C° 0 mm 2 m/S 760 mmHg 54%
12:00 +23°C° 0 mm 2 m/S 760 mmHg 51%
13:00 +23°C° 0 mm 1 m/S 759 mmHg 48%
14:00 +24°C° 0 mm 2 m/S 759 mmHg 47%
15:00 +24°C° 0 mm 2 m/S 758 mmHg 47%
16:00 +24°C° 0 mm 2 m/S 758 mmHg 46%
17:00 +23°C° 0 mm 2 m/S 757 mmHg 52%
18:00 +21°C° 0 mm 2 m/S 757 mmHg 57%
19:00 +21°C° 0 mm 2 m/S 757 mmHg 63%
20:00 +19°C° 0 mm 2 m/S 756 mmHg 65%
21:00 +18°C° 0 mm 2 m/S 756 mmHg 67%
22:00 +17°C° 0 mm 3 m/S 756 mmHg 69%
23:00 +16°C° 0 mm 2 m/S 756 mmHg 71%

14 Juli, Dienstag

Zeit Temperatur Niederschläge Wind Luftdruck Luftfeuchtigkeit
00:00 +16°C° 0 mm 2 m/S 756 mmHg 74%
01:00 +15°C° 0 mm 2 m/S 755 mmHg 77%
02:00 +15°C° 0 mm 2 m/S 755 mmHg 76%
03:00 +15°C° 0 mm 2 m/S 755 mmHg 75%
04:00 +15°C° 0 mm 2 m/S 754 mmHg 74%
05:00 +15°C° 0 mm 1 m/S 754 mmHg 74%
06:00 +16°C° 0 mm 1 m/S 754 mmHg 73%
07:00 +18°C° 0 mm 1 m/S 754 mmHg 72%
08:00 +19°C° 0 mm 1 m/S 754 mmHg 69%
09:00 +19°C° 0 mm 2 m/S 754 mmHg 65%
10:00 +21°C° 0 mm 2 m/S 754 mmHg 61%
11:00 +21°C° 0.4 mm 3 m/S 754 mmHg 64%
12:00 +21°C° 0.4 mm 3 m/S 754 mmHg 66%
13:00 +21°C° 0.4 mm 4 m/S 754 mmHg 68%
14:00 +20°C° 0.5 mm 4 m/S 754 mmHg 68%
15:00 +20°C° 0.5 mm 4 m/S 754 mmHg 69%
16:00 +20°C° 0.5 mm 5 m/S 754 mmHg 70%
17:00 +19°C° 0.1 mm 4 m/S 754 mmHg 72%
18:00 +18°C° 0.1 mm 4 m/S 755 mmHg 74%
19:00 +18°C° 0.1 mm 4 m/S 755 mmHg 76%
20:00 +17°C° 0 mm 3 m/S 755 mmHg 79%
21:00 +16°C° 0 mm 2 m/S 755 mmHg 83%
22:00 +14°C° 0 mm 2 m/S 756 mmHg 86%
23:00 +14°C° 0 mm 2 m/S 756 mmHg 87%
Mehr zeigen